OpenBCM V1.13 (Linux)

Packet Radio Mailbox

DB0FHN

[JN59NK Nuernberg]

 Login: GUEST





  
I6KZR  > KEPLER   25.02.03 00:32l 299 Lines 15109 Bytes #999 (0) @ WW
BID : 25520_IK6WID
Read: DB0FHN GUEST
Subj: 2L Keplerian Elements #054
Path: DB0FHN<DB0RGB<OK0PPL<RZ6HXA<SP7MGD<IK6PYS<IK6PYS<I6ZLO<IK6WID
Sent: 030224/2203Z @:IK6WID.#AP.IMAR.ITA.EU #:25520 [MONTE URANO]  FBB7.00i
From: I6KZR@IK6WID.#AP.IMAR.ITA.EU
To  : KEPLER@WW


OSCAR 7
1 07530U 74089B   03054.71950756 -.00000029 +00000-0 +10000-3 0 01678
2 07530 101.7603 102.4591 0012183 070.1984 290.0401 12.53564479293838
GOES 2
1 10061U 77048A   03051.70332233 -.00000279  00000-0  00000+0 0   940
2 10061  14.1349  13.4071 0012974 200.0160 159.9586  0.99400653 38853
GOES 3
1 10953U 78062A   03053.92236501 -.00000107  00000-0  00000+0 0  9314
2 10953  13.4120  17.1985 0005713 342.3469  17.6497  1.00279322 43545
GOES 6
1 14050U 83041A   03053.03607911 +.00000030 +00000-0 +10000-3 0 04288
2 14050 010.4089 035.5299 0004291 343.7591 016.2875 01.00303949130670
OSCAR 10
1 14129U 83058B   03053.29347507 -.00000135 +00000-0 +10000-3 0 09207
2 14129 025.9661 163.6642 6025305 329.8586 006.1874 02.05867335120141
OSCAR 11 (UoSAT 2)
1 14781U 84021B   03055.56883824  .00001152  00000-0  16688-3 0   793
2 14781  98.1189  29.5390 0009037 184.4520 175.6608 14.78015512 17128
NOAA 10
1 16969U 86073A   03054.94711229 +.00000159 +00000-0 +83504-4 0 06785
2 16969 098.7305 049.0464 0013458 072.6780 287.5871 14.27066745854673
GOES 7
1 17561U 87022A   03048.62060979  .00000046  00000-0  10000-3 0  8558
2 17561   7.5984  55.5542 0005433 262.3589 233.COSMOS 1861
1 18129U 87054A   03054.75880749  .00000065  00000-0  54783-4 0  2024
2 18129  82.9273 142.7235 0010465 207.1424 152.9184 13.72701476785226
EUTELSAT 1-F4 (ECS 4)
1 18351U 87078B   03051.98344187 -.00000038  00000-0  00000+0 0   421
2 18351   7.2019  58.6515 0006906 200.6778 159.4474  0.98687085 42708
NOAA 11
1 19531U 88089A   03054.95824399 +.00000211 +00000-0 +13314-3 0 05167
2 19531 098.8998 136.3233 0011778 183.3602 176.7493 14.14541082743562
ASTRA 1A
1 19688U 88109B   03054.88404824  .00000024  00000-0  10000-3 0  5792
2 19688   1.4210  95.1475 0004522 238.9247 142.6991  1.00272670 32250
OSCAR 14 (UOSAT 3)
1 20437U 90005B 2 20437  98.2728  98.0421 0010317 182.6284 177.4845 14.31240126683222
OSCAR 15 (UOSAT 4)
1 20438U 90005C   03055.53489058  .00000084  00000-0  48277-4 0  7785
2 20438  98.2461  87.9577 0009413 191.1457 168.9525 14.30199899683014
OSCAR 16 (PACSAT)
1 20439U 90005D   03054.68613196 +.00000136 +00000-0 +66689-4 0 08587
2 20439 098.3160 109.7684 0010529 189.2862 170.8132 14.31474283683269
OSCAR 17 (DOVE)
1 20440U 90005E   03054.74393850  .00000181  00000-0  83361-4 0  7291
2 20440  98.3370 113.7298 0010621 187.8344 172.2667 14.31752820683346
OSCAR 18 (WEBERSAT)
1 20441U 90005F   03055.22579147  .00000141  00000-0  68560-4 0   193
2 20441  98.3326 113.3990 0011319 187.4960 172.6053 14.31556209683399
OSCAR 19 (LUSAT)
1 20442U 90005G   03055.20356890  .00000160  00000-0  75431-4 0  9702
2 20442  98.3445 116.4112JAS 1B (FUJI 2)
1 20480U 90013C   03054.92478355 +.00000007 +00000-0 +90845-4 0 04815
2 20480 099.0473 016.6602 0540763 351.7567 007.4912 12.83330463611204
HST
1 20580U 90037B   03054.35937500  .00001960  00000-0  14936-3 0  3376
2 20580  28.4692   6.9525 0004050 321.5356 154.4983 14.97842656503351
EUTELSAT 2-F1
1 20777U 90079B   03053.91987757 -.00000106  00000-0  10000-3 0   366
2 20777   3.5125  84.5205 0002099 309.9528 165.0197  1.00270323 26141
FENGYUN 1B
1 20788U 90081A   03055.17110491  .00000007  00000-0  33808-4 0  8891
2 20788  99.0267  37.2962 0015509 212.9410 147.0791 14.02135514638325
EUTELSAT 2-F2
1 21056U 91003B   03046.68872131  .00000120  00000-0  10000-3 0  6181
2 21056   2.7246  87.9532 0003121 260.7722  93.0131  1.00277947 31844
INFORMATOR 1
1 21087U 91002 21087 082.9436 313.5349 0033524 235.4404 124.3585 13.74927254605608
COSMOS 2123
1 21089U 91007A   03054.85505049 +.00000048 +00000-0 +34911-4 0 05131
2 21089 082.9229 177.4570 0027639 272.5829 087.2163 13.74404672604518
ASTRA 1B
1 21139U 91015A   03049.00000000  .00000116  00000-0  10000-3 0  1611
2 21139   0.0122 319.8851 0002995  65.1991 141.6493  1.00273184 32182
METEOSAT 5 (MOP 2)
1 21140U 91015B   03051.80113615  .00000015  00000-0  10000-3 0  7301
2 21140   5.6341  69.9260 0001292 154.0045 277.6241  1.00274805 46077
NOAA 12
1 21263U 91032A   03054.96013033 +.00000298 +00000-0 +14563-3 0 09874
2 21263 098.6270 044.4964 0013300 010.2360 349.9087 14.25085645611983
OSCAR 22 (UoSAT 5)
1 21575U 91050B   03055.20891535  .00000285  00002 21575  98.1412  47.0458 0008372 112.6376 247.5698 14.39159013609092
METEOR 3-5
1 21655U 91056A   03054.91622594 +.00000051 +00000-0 +10000-3 0 05794
2 21655 082.5544 035.0791 0012624 181.1281 178.9815 13.16979764554186
UARS
1 21701U 91063B   03054.68466369 +.00000699 +00000-0 +70568-4 0 08320
2 21701 056.9825 011.3431 0004452 114.2379 245.9112 15.02870391626489
EUTELSAT 2-F3
1 21803U 91083A   03051.82541764  .00000124  00000-0  10000-3 0  5246
2 21803   2.6025  89.0644 0003498 285.9590  94.1679  1.00280742 37026
INMARSAT 2-F3
1 21814U 91084B   03054.35330983  .00000102  00000-0  10000-3 0  6213
2 21814   1.7536  58.4643 0002896 282.9117 156.5856  1.00271555 40944
INMARSAT 2-F4
1 21940U 92021B   03050.69047470 -.00000356  00000-0  10000-3 0  5721
2 21940   2.38EUTELSAT 2-F4
1 22028U 92041B   03052.59043583 -.00000106 +00000-0 +10000-3 0 03331
2 22028 001.7240 092.4650 0006109 235.3032 023.5664 01.00271843031804
OSCAR 23 (KITSAT 1)
1 22077U 92052B   03054.93194366 -.00000037 +00000-0 +10000-3 0 02414
2 22077 066.0870 114.4980 0015627 272.2347 087.6883 12.86408623494997
ASTRA 1C
1 22653U 93031A   03049.00000000  .00000116  00000-0  10000-3 0  7888
2 22653   0.0122 319.8851 0002995  65.1991 141.6099  1.00273184 30881
METEOR 2-21
1 22782U 93055A   03054.81389339 +.00000039 +00000-0 +22345-4 0 05267
2 22782 082.5487 210.7329 0021716 334.3743 025.6334 13.83532469478810
KITSAT B
1 22825U 93061C   03054.93416882 +.00000127 +00000-0 +66354-4 0 04949
2 22825 098.2744 084.3572 0007469 241.2873 118.7559 14.28945438490644
POSAT 1
1 22826U 93061D   03055.52369706  .2 22826  98.2747  86.0359 0007997 242.2411 117.7963 14.29168916490776
ITAMSAT
1 22828U 93061F   03054.59267322 +.00000134 +00000-0 +68464-4 0 04332
2 22828 098.2711 085.4152 0009133 220.3311 139.7189 14.29510325458844
EYESAT A
1 22829U 93061G   03055.16080259  .00000207  00000-0  96644-4 0  4588
2 22829  98.2718  86.5628 0008978 218.5269 141.5269 14.29771786490856
METEOSAT 6
1 22912U 93073B   03051.81446144  .00000056  00000-0  00000+0 0  6884
2 22912   2.6769  82.0054 0032321 356.1752  14.7022  1.00272947 32325
GOES 8
1 23051U 94022A   03054.27941628 -.00000260  00000-0  00000+0 0  6196
2 23051   0.3086 103.0267 0000856 264.2393 171.3954  1.00276017 39856
ASTRA 1D
1 23331U 94070A   03052.80144086  .00000132  00000-0  000002 23331   0.0537 223.1440 0013728 173.9673  66.7649  1.00275913 30900
RADIO ROSTO
1 23439U 94085A   03054.96988991 -.00000042 +00000-0 +16348-4 0 06864
2 23439 064.8161 032.7456 0146728 114.1360 247.4982 11.27547605336208
NOAA 14
1 23455U 94089A   03054.99621181 +.00000145 +00000-0 +10226-3 0 05381
2 23455 099.1867 073.7073 0008708 211.8951 148.1693 14.13299854420248
HIMAWARI 5 (GMS 5)
1 23522U 95011B   03055.13584602 -.00000291  00000-0  00000+0 0  1187
2 23522   1.7776  83.3840 0000664 120.4804 138.8454  1.00275886 28948
HOT BIRD 1
1 23537U 95016B   03051.86711589  .00000082  00000-0  10000-3 0  5366
2 23537   0.1065 111.6969 0007490 174.8875 189.0308  1.00276476 28997
GOES 9
1 23581U 95025A   03054.47365380  .00000109  00000-0  00000+0 0  5308
2 23581   0.2611 277.547INMARSAT 3-F1
1 23839U 96020A   03054.72527578  .00000005  00000-0  00000+0 0  8743
2 23839   0.0449 343.3622 0009344 272.9017 222.0132  1.00274952 25262
ASTRA 1F
1 23842U 96021A   03049.00000000  .00000116  00000-0  10000-3 0  5609
2 23842   0.0122 319.8851 0002995  65.1991 141.6521  1.00273184 25112
JAS 2
1 24278U 96046B   03054.94052720 -.00000003 +00000-0 +33666-4 0 05672
2 24278 098.5378 205.4321 0350254 202.4746 156.0719 13.52872831322035
UNAMSAT
1 24305U 96052B   03054.95189097 +.00000205 +00000-0 +20364-3 0 06819
2 24305 082.9300 258.8005 0029537 185.5426 174.5403 13.73452276324220
INMARSAT 3-F2
1 24307U 96053A   03048.16355904 -.00000126  00000-0  00000+0 0   829
2 24307   0.0603  13.0422 0005875 324.1064 212.9403  1.00272441 23607
HOT BIRD 2
1 24665U 96067A   03051.87295777  .000002 24665   0.0602 278.0569 0008075  45.8891 153.6489  1.00273748 23288
INMARSAT 3-F3
1 24674U 96070A   03054.39126738  .00000030  00000-0  10000-3 0  9937
2 24674   0.0709 306.8064 0003721   7.9924 156.9423  1.00272144 22636
GOES 10
1 24786U 97019A   03055.38943647  .00000078  00000-0  00000+0 0  5596
2 24786   0.1463 104.9448 0002020 250.3621 163.5768  1.00261449 21394
INMARSAT 3-F4
1 24819U 97027A   03054.31435635 -.00000295  00000-0  10000-3 0  8889
2 24819   0.0432 294.5288 0003935  36.0427 241.3306  1.00267632 21059
FENGYUN 2A
1 24834U 97029A   03053.89585481 -.00000203  00000-0  00000+0 0  9677
2 24834   2.5825  88.4062 0001228 209.7638 262.5241  1.00280697 20884
HOT BIRD 3
1 24931U 97049A   03051.86334527  .02 24931   0.0478 160.3357 0010425 174.4081 139.3861  1.00275316 20101
METEOSAT 7
1 24932U 97049B   03054.00426097 -.00000006  00000-0  00000+0 0  2549
2 24932   0.2196  64.9262 0001178 261.5542 188.1794  1.00280550 20068
ASTRA 1G
1 25071U 97076A   03049.00000000  .00000116  00000-0  10000-3 0  3929
2 25071   0.0122 319.8851 0002995  65.1991 141.6317  1.00273184 19136
INMARSAT 3-F5
1 25153U 98006B   03054.80580781  .00000131  00000-0  10000-3 0  8491
2 25153   0.4666 353.2016 0002984 342.7048 132.4452  1.00275433 18556
HOT BIRD 4
1 25237U 98013A   03051.87002466  .00000081  00000-0  10000-3 0  3281
2 25237   0.0941 307.5522 0007523 323.6559 205.4369  1.00273901 18561
